Regional Weather Roundup
Issued by NWS Jackson, KY

Home | Current Version | Previous Version | Text Only | Print | Product List | Glossary On
Versions: 1 2 3 4 5 6 7 8 9 10 11 12 13 14 15 16 17 18 19 20 21 22 23 24 25 26 27
000
ASUS43 KJKL 171310
RWRJKL

EAST KENTUCKY HOURLY WEATHER ROUNDUP
NATIONAL WEATHER SERVICE JACKSON KY
800 AM EST SUN DEC 17 2017

NOTE: "FAIR" INDICATES FEW OR NO CLOUDS BELOW 12,000 FEET WITH
NO SIGNIFICANT WEATHER AND/OR OBSTRUCTIONS TO VISIBILITY.

* THESE REPORTS ARE NOT UNDER NWS QUALITY CONTROL AND MAY NOT
  REPORT WEATHER SUCH AS PRECIPITATION AND FOG.

KYZ079-080-083-085-087-088-110-112-115-119-120-171400
...EASTERN KENTUCKY...

CITY           SKY/WX    TMP DP  RH WIND       PRES   REMARKS
JACKSON        CLOUDY    39  26  59 CALM      30.19R
LONDON         CLOUDY    35  29  78 CALM      30.23R
SOMERSET*      CLOUDY    36  30  80 SW3       30.28R
MONTICELLO*    CLOUDY    39  32  76 W8        30.28R WCI  33
WILLIAMSBURG*  CLOUDY    36  30  80 CALM      30.25R
MIDDLESBORO*   CLOUDY    31  29  94 CALM      30.25S
HARLAN APT*    CLOUDY    32  28  86 CALM      30.22S
PIKE CO APT*     N/A     37  27  67 S3        30.22R
BIG SANDY APT* CLOUDY    37  27  68 CALM      30.23R
MOREHEAD APT*  CLOUDY    37  28  70 SE5       30.22S WCI  34
$$

KYZ035-036-041-042-044-050-067-078-099-171400
...CENTRAL KENTUCKY...

CITY           SKY/WX    TMP DP  RH WIND       PRES   REMARKS
MT STERLING*   CLOUDY    39  30  70 SW3       30.20F
FLEMING/MASON* MOCLDY    37  29  72 S6        30.21S WCI  33
DANVILLE*      CLOUDY    37  30  75 SW7       30.26R WCI  32
LEXINGTON      CLOUDY    40  29  64 S5        30.19R
FRANKFORT      CLOUDY    40  28  62 SW5       30.19R
LOUISVILLE     CLOUDY    43  30  60 SW3       30.21R
LEBANON*       CLOUDY    41  28  60 S8        30.24R
GLASGOW*       CLOUDY    40  30  65 SE5       30.22F
BOWLING GREEN  CLOUDY    42  32  67 SE3       30.22F
$$

KYZ091>093-OHZ055-061-077-WVZ005-015-034-035-042-171400
...SOUTHERN OHIO/WEST VIRGINIA...

CITY           SKY/WX    TMP DP  RH WIND       PRES   REMARKS
COVINGTON      CLOUDY    38  31  76 S9        30.18R WCI  31
COLUMBUS       CLOUDY    34  28  79 CALM      30.17S
DAYTON         CLOUDY    37  30  75 S8        30.16R WCI  31
WILMINGTON     CLOUDY    35  30  82 S7        30.18R WCI  29
HUNTINGTON     PTCLDY    37  27  67 S5        30.22R WCI  33
CHARLESTON     CLOUDY    30  25  81 CALM      30.22F
PINEVILLE*       N/A     30  26  86 MISG      30.26F
BECKLEY        CLOUDY    34  24  67 S6        30.19F WCI  29
BLUEFIELD      PTCLDY    34  19  54 E3        30.19F
LOGAN CO APT*    N/A     36  27  69 CALM      30.22R
$$

VAZ002-007-008-TNZ017-027-036-066-071-171400
...SOUTHWEST VIRGINIA/EAST TENNESSEE...

CITY           SKY/WX    TMP DP  RH WIND       PRES   REMARKS
WISE*          CLOUDY    32  30  93 SW3       30.21R
JONESVILLE*      N/A     28  27  93 CALM      30.26S
ABINGDON*      PTCLDY    34  28  79 E3        30.20F
BRISTOL        MOCLDY    30  27  88 CALM      30.24F
MORRISTOWN*    SUNNY     32  28  86 E3        30.22F
SEVIERVILLE*   MOSUNNY   27  27 100 CALM      30.25R
KNOXVILLE      CLOUDY    33  31  92 N5        30.24R WCI  29
LAFOLLETTE*    CLOUDY    32  30  93 CALM      30.29R
OAK RIDGE      CLOUDY    33  32  96 CALM      30.26R
CROSSVILLE     CLOUDY    36  28  73 W6        30.25R WCI  31
NASHVILLE      LGT RAIN  40  36  86 SE7       30.22F
$$

...KEY TO REMARKS...
VSB - VISIBILITY IN MILES
WCI - WIND CHILL INDEX
HX  - HEAT INDEX

$$




USA.gov is the U.S. government's official web portal to all federal, state and local government web resources and services.